Home > Weather > Grevenbroich > Past weeks

Flag for Germany Weather for the Past 2 Weeks in Grevenbroich, North Rhine-Westphalia, Germany

Now
61 °F

Sunny.


Feels Like: 61 °F
Forecast: 44 / 57 °F
Wind: 2 mph from North

Location: Monchengladbach Airport

Current Time: May 2, 2016 at 1:12:26 PM

Latest Report: May 2, 2016 at 12:50 PM


Visibility: 10 mi

Pressure: 30.24 "Hg

Humidity: 55%

Dew Point: 45 °F

Location of GrevenbroichLocation

Historic Weather in Grevenbroich — Graph

°F

Grevenbroich Temperature Yesterday

Maximum temperature yesterday: 57 °F (at 3:20 PM)
Minimum temperature yesterday: 43 °F (at 7:50 AM)
Average temperature yesterday: 52 °F

High & Low Weather Summary for the Past Weeks

 TemperatureHumidityPressure
High66 °F (Apr 21, 4:20 PM)100% (Apr 30, 7:50 AM)30.48 "Hg (Apr 30, 7:50 AM)
Low37 °F (Apr 18, 7:50 AM)28% (Apr 21, 5:20 PM)29.50 "Hg (Apr 26, 12:20 PM)
Average49 °F65%30.03 "Hg
* Reported Apr 17 11:20 AM — May 2 11:50 AM, Grevenbroich, Weather by CustomWeather, © 2016

Note: Actual official high and low records may vary slightly from our data, if they occured in-between our weather recording intervals... More about our weather records

Advertising

Grevenbroich Weather History for the Previous 24 Hours

Scroll right to see more
 ConditionsComfort  
Time TempWeatherWind HumidityBarometerVisibility
11:50 AM
Mon, May 2
61 °FSunny.3 mph59%30.24 "Hg10 mi
11:20 AM59 °FSunny.3 mph63%30.27 "Hg10 mi
10:50 AM55 °FSunny.3 mph67%30.27 "Hg10 mi
10:20 AM54 °FSunny.2 mph72%30.27 "Hg10 mi
9:50 AM52 °FSunny.3 mph72%30.27 "Hg10 mi
9:20 AM52 °FSunny.2 mph77%30.27 "Hg10 mi
8:50 AM48 °FSunny.2 mph82%30.27 "Hg10 mi
8:20 AM46 °FSunny.2 mph82%30.30 "Hg10 mi
8:20 PM
Sun, May 1
54 °FClear.8 mph67%30.33 "Hg10 mi
7:50 PM54 °FPassing clouds.12 mph67%30.30 "HgN/A
7:20 PM54 °FClear.13 mph67%30.30 "Hg10 mi
6:50 PM55 °FClear.14 mph63%30.30 "Hg10 mi
6:20 PM55 °FClear.13 mph67%30.30 "Hg10 mi
5:50 PM55 °FClear.14 mph67%30.30 "Hg10 mi
5:20 PM57 °FPassing clouds.12 mph63%30.30 "HgN/A
4:50 PM57 °FPassing clouds.10 mph59%30.30 "HgN/A
4:20 PM57 °FPassing clouds.12 mph55%30.30 "HgN/A
3:50 PM57 °FPassing clouds.12 mph63%30.30 "HgN/A
3:20 PM57 °FPassing clouds.13 mph59%30.30 "HgN/A
2:50 PM55 °FPassing clouds.13 mph59%30.30 "HgN/A
2:20 PM55 °FPassing clouds.13 mph59%30.30 "HgN/A
1:50 PM54 °FPassing clouds.10 mph58%30.30 "HgN/A
1:20 PM54 °FPassing clouds.15 mph63%30.30 "HgN/A
Weather by CustomWeather, © 2016

See weather overviewHow to use our weather pages